Time,TemperatureF,DewpointF,PressureIn,WindDirection,WindDirectionDegrees,WindSpeedMPH,WindSpeedGustMPH,Humidity,HourlyPrecipIn,Conditions,Clouds,dailyrainin,SoftwareType,DateUTC
2013-07-30 00:01:00,69.7,67.3,30.19,ENE,77,0.0,0.0,92,0.00,,---,0.00,VWS V14.01,2013-07-30 04:01:00,
2013-07-30 00:02:00,69.6,67.2,30.19,ENE,77,0.0,0.0,92,0.00,,---,0.00,VWS V14.01,2013-07-30 04:02:00,
2013-07-30 00:03:00,69.6,67.2,30.19,ENE,77,0.0,0.0,92,0.00,,---,0.00,VWS V14.01,2013-07-30 04:03:00,
2013-07-30 00:09:00,69.4,67.0,30.19,ENE,77,0.0,0.0,92,0.00,,---,0.00,VWS V14.01,2013-07-30 04:09:00,
2013-07-30 00:14:00,69.3,66.9,30.19,ENE,77,0.0,0.0,92,0.00,,---,0.00,VWS V14.01,2013-07-30 04:14:00,
2013-07-30 00:15:00,69.2,66.8,30.19,ENE,77,0.0,0.0,92,0.00,,---,0.00,VWS V14.01,2013-07-30 04:15:00,
2013-07-30 00:20:00,69.2,66.8,30.19,ENE,77,0.0,0.0,92,0.00,,---,0.00,VWS V14.01,2013-07-30 04:20:00,
2013-07-30 00:25:00,69.0,66.6,30.19,ENE,77,0.0,0.0,92,0.00,,---,0.00,VWS V14.01,2013-07-30 04:25:00,
2013-07-30 00:30:00,68.9,66.5,30.19,ENE,77,0.0,0.0,92,0.00,,---,0.00,VWS V14.01,2013-07-30 04:30:00,
2013-07-30 00:31:00,68.8,66.4,30.19,ENE,77,0.0,0.0,92,0.00,,---,0.00,VWS V14.01,2013-07-30 04:31:00,
2013-07-30 00:36:00,68.7,66.6,30.19,ENE,77,0.0,0.0,93,0.00,,---,0.00,VWS V14.01,2013-07-30 04:36:00,
2013-07-30 00:41:00,68.6,66.5,30.19,ENE,77,0.0,0.0,93,0.00,,---,0.00,VWS V14.01,2013-07-30 04:41:00,
2013-07-30 00:45:00,68.5,66.4,30.19,ENE,77,0.0,0.0,93,0.00,,---,0.00,VWS V14.01,2013-07-30 04:45:00,
2013-07-30 00:46:00,68.5,66.4,30.19,ENE,77,0.0,0.0,93,0.00,,---,0.00,VWS V14.01,2013-07-30 04:46:00,
2013-07-30 00:52:00,68.5,66.4,30.19,ENE,77,0.0,0.0,93,0.00,,---,0.00,VWS V14.01,2013-07-30 04:52:00,
2013-07-30 00:57:00,68.5,66.4,30.19,ENE,77,0.0,0.0,93,0.00,,---,0.00,VWS V14.01,2013-07-30 04:57:00,
2013-07-30 01:00:00,68.5,66.4,30.19,ENE,77,0.0,0.0,93,0.00,,---,0.00,VWS V14.01,2013-07-30 05:00:00,
2013-07-30 01:02:00,68.4,66.3,30.19,ENE,77,0.0,0.0,93,0.00,,---,0.00,VWS V14.01,2013-07-30 05:02:00,
2013-07-30 01:07:00,68.3,66.5,30.19,ENE,77,0.0,0.0,94,0.00,,---,0.00,VWS V14.01,2013-07-30 05:07:00,
2013-07-30 01:13:00,68.2,66.4,30.19,ENE,77,0.0,0.0,94,0.00,,---,0.00,VWS V14.01,2013-07-30 05:13:00,
2013-07-30 01:15:00,68.2,66.4,30.19,ENE,77,0.0,0.0,94,0.00,,---,0.00,VWS V14.01,2013-07-30 05:15:00,
2013-07-30 01:18:00,68.2,66.4,30.19,ENE,77,0.0,0.0,94,0.00,,---,0.00,VWS V14.01,2013-07-30 05:18:00,
2013-07-30 01:23:00,68.2,66.4,30.19,ENE,77,0.0,0.0,94,0.00,,---,0.00,VWS V14.01,2013-07-30 05:23:00,
2013-07-30 01:28:00,68.1,66.3,30.19,ENE,77,0.0,0.0,94,0.00,,---,0.00,VWS V14.01,2013-07-30 05:28:00,
2013-07-30 01:30:00,68.1,66.3,30.19,ENE,77,0.0,0.0,94,0.00,,---,0.00,VWS V14.01,2013-07-30 05:30:00,
2013-07-30 01:34:00,68.1,66.3,30.19,ENE,77,0.0,0.0,94,0.00,,---,0.00,VWS V14.01,2013-07-30 05:34:00,
2013-07-30 01:39:00,68.3,66.8,30.19,ENE,77,0.0,0.0,95,0.00,,---,0.00,VWS V14.01,2013-07-30 05:39:00,
2013-07-30 01:44:00,68.6,67.1,30.19,ENE,77,0.0,0.0,95,0.00,,---,0.00,VWS V14.01,2013-07-30 05:44:00,
2013-07-30 01:45:00,68.7,67.2,30.19,ENE,77,0.0,0.0,95,0.00,,---,0.00,VWS V14.01,2013-07-30 05:45:00,
2013-07-30 01:49:00,68.9,67.4,30.19,ENE,77,0.0,0.0,95,0.00,,---,0.00,VWS V14.01,2013-07-30 05:49:00,
2013-07-30 01:55:00,69.1,67.6,30.19,SE,126,0.0,0.0,95,0.00,,---,0.00,VWS V14.01,2013-07-30 05:55:00,
2013-07-30 02:00:00,69.3,67.8,30.19,SSW,211,0.0,0.0,95,0.00,,---,0.00,VWS V14.01,2013-07-30 06:00:00,
2013-07-30 02:05:00,69.5,68.3,30.19,South,191,0.0,1.0,96,0.00,,---,0.00,VWS V14.01,2013-07-30 06:05:00,
2013-07-30 02:10:00,69.5,68.3,30.19,South,191,0.0,1.0,96,0.00,,---,0.00,VWS V14.01,2013-07-30 06:10:00,
2013-07-30 02:15:00,69.5,68.0,30.19,SE,136,0.0,1.0,95,0.00,,---,0.00,VWS V14.01,2013-07-30 06:15:00,
2013-07-30 02:20:00,69.3,67.8,30.18,SE,135,0.0,0.0,95,0.00,,---,0.00,VWS V14.01,2013-07-30 06:20:00,
2013-07-30 02:26:00,69.1,67.6,30.18,SE,135,0.0,0.0,95,0.00,,---,0.00,VWS V14.01,2013-07-30 06:26:00,
2013-07-30 02:30:00,69.0,67.5,30.18,SSW,202,0.0,0.0,95,0.00,,---,0.00,VWS V14.01,2013-07-30 06:30:00,
2013-07-30 02:31:00,69.0,67.5,30.18,SE,135,0.0,0.0,95,0.00,,---,0.00,VWS V14.01,2013-07-30 06:31:00,
2013-07-30 02:36:00,68.9,67.4,30.18,SE,135,0.0,0.0,95,0.00,,---,0.00,VWS V14.01,2013-07-30 06:36:00,
2013-07-30 02:41:00,68.7,67.2,30.18,SE,135,0.0,0.0,95,0.00,,---,0.00,VWS V14.01,2013-07-30 06:41:00,
2013-07-30 02:45:00,68.5,66.7,30.18,SSW,202,0.0,0.0,94,0.00,,---,0.00,VWS V14.01,2013-07-30 06:45:00,
2013-07-30 02:46:00,68.4,66.6,30.18,SE,135,0.0,0.0,94,0.00,,---,0.00,VWS V14.01,2013-07-30 06:46:00,
2013-07-30 02:51:00,68.2,66.7,30.18,SE,135,0.0,0.0,95,0.00,,---,0.00,VWS V14.01,2013-07-30 06:51:00,
2013-07-30 02:57:00,68.1,66.3,30.18,SE,135,0.0,0.0,94,0.00,,---,0.00,VWS V14.01,2013-07-30 06:57:00,
2013-07-30 03:00:00,68.0,66.2,30.19,SSW,202,0.0,0.0,94,0.00,,---,0.00,VWS V14.01,2013-07-30 07:00:00,
2013-07-30 03:02:00,68.0,66.2,30.19,SE,135,0.0,0.0,94,0.00,,---,0.00,VWS V14.01,2013-07-30 07:02:00,
2013-07-30 03:08:00,67.7,65.9,30.18,SE,135,0.0,0.0,94,0.00,,---,0.00,VWS V14.01,2013-07-30 07:08:00,
2013-07-30 03:13:00,67.7,66.2,30.18,SE,135,0.0,0.0,95,0.00,,---,0.00,VWS V14.01,2013-07-30 07:13:00,
2013-07-30 03:15:00,67.6,66.1,30.18,SSW,202,0.0,0.0,95,0.00,,---,0.00,VWS V14.01,2013-07-30 07:15:00,
2013-07-30 03:18:00,67.6,66.1,30.18,SE,135,0.0,0.0,95,0.00,,---,0.00,VWS V14.01,2013-07-30 07:18:00,
2013-07-30 03:23:00,67.6,66.1,30.19,SE,135,0.0,0.0,95,0.00,,---,0.00,VWS V14.01,2013-07-30 07:23:00,
2013-07-30 03:28:00,67.6,66.1,30.19,SE,135,0.0,0.0,95,0.00,,---,0.00,VWS V14.01,2013-07-30 07:28:00,
2013-07-30 03:30:00,67.5,66.0,30.19,SSW,202,0.0,0.0,95,0.00,,---,0.00,VWS V14.01,2013-07-30 07:30:00,
2013-07-30 03:34:00,67.5,66.0,30.19,NNE,26,0.0,0.0,95,0.00,,---,0.00,VWS V14.01,2013-07-30 07:34:00,
2013-07-30 03:39:00,67.6,66.1,30.19,NNE,20,0.0,0.0,95,0.00,,---,0.00,VWS V14.01,2013-07-30 07:39:00,
2013-07-30 03:44:00,67.7,66.2,30.19,NNE,27,0.0,0.0,95,0.00,,---,0.00,VWS V14.01,2013-07-30 07:44:00,
2013-07-30 03:45:00,67.7,66.2,30.19,SSW,202,0.0,0.0,95,0.00,,---,0.00,VWS V14.01,2013-07-30 07:45:00,
2013-07-30 03:49:00,67.9,66.4,30.19,NNE,26,0.0,0.0,95,0.00,,---,0.00,VWS V14.01,2013-07-30 07:49:00,
2013-07-30 03:55:00,68.0,66.8,30.19,NNE,26,0.0,0.0,96,0.00,,---,0.00,VWS V14.01,2013-07-30 07:55:00,
2013-07-30 04:00:00,68.2,67.0,30.19,NNE,26,0.0,0.0,96,0.00,,---,0.00,VWS V14.01,2013-07-30 08:00:00,
2013-07-30 04:05:00,68.3,67.1,30.19,NNE,26,0.0,0.0,96,0.00,,---,0.00,VWS V14.01,2013-07-30 08:05:00,
2013-07-30 04:10:00,68.4,67.2,30.19,NNE,26,0.0,0.0,96,0.00,,---,0.00,VWS V14.01,2013-07-30 08:10:00,
2013-07-30 04:15:00,68.5,67.3,30.19,NNE,26,0.0,0.0,96,0.00,,---,0.00,VWS V14.01,2013-07-30 08:15:00,
2013-07-30 04:20:00,68.5,67.3,30.19,NNE,26,0.0,0.0,96,0.00,,---,0.00,VWS V14.01,2013-07-30 08:20:00,
2013-07-30 04:26:00,68.5,67.3,30.19,NNE,26,0.0,0.0,96,0.00,,---,0.00,VWS V14.01,2013-07-30 08:26:00,
2013-07-30 04:30:00,68.4,67.2,30.19,SSW,202,0.0,0.0,96,0.00,,---,0.00,VWS V14.01,2013-07-30 08:30:00,
2013-07-30 04:31:00,68.5,67.3,30.19,NNE,26,0.0,0.0,96,0.00,,---,0.00,VWS V14.01,2013-07-30 08:31:00,
2013-07-30 04:36:00,68.4,67.2,30.19,NNE,26,0.0,0.0,96,0.00,,---,0.00,VWS V14.01,2013-07-30 08:36:00,
2013-07-30 04:41:00,68.3,67.1,30.19,NNE,26,0.0,0.0,96,0.00,,---,0.00,VWS V14.01,2013-07-30 08:41:00,
2013-07-30 04:45:00,68.3,67.1,30.19,SSW,202,0.0,0.0,96,0.00,,---,0.00,VWS V14.01,2013-07-30 08:45:00,
2013-07-30 04:47:00,68.2,67.0,30.19,NNE,26,0.0,0.0,96,0.00,,---,0.00,VWS V14.01,2013-07-30 08:47:00,
2013-07-30 04:52:00,68.1,66.9,30.19,NNE,26,0.0,0.0,96,0.00,,---,0.00,VWS V14.01,2013-07-30 08:52:00,
2013-07-30 04:57:00,68.0,66.5,30.19,NNE,26,0.0,0.0,95,0.00,,---,0.00,VWS V14.01,2013-07-30 08:57:00,
2013-07-30 05:00:00,68.0,66.5,30.19,SSW,202,0.0,0.0,95,0.00,,---,0.00,VWS V14.01,2013-07-30 09:00:00,
2013-07-30 05:03:00,67.9,66.4,30.20,NNE,26,0.0,0.0,95,0.00,,---,0.00,VWS V14.01,2013-07-30 09:03:00,
2013-07-30 05:08:00,67.7,66.2,30.20,NNE,26,0.0,0.0,95,0.00,,---,0.00,VWS V14.01,2013-07-30 09:08:00,
2013-07-30 05:13:00,67.6,66.1,30.20,NNE,26,0.0,0.0,95,0.00,,---,0.00,VWS V14.01,2013-07-30 09:13:00,
2013-07-30 05:15:00,67.6,66.1,30.20,SSW,202,0.0,0.0,95,0.00,,---,0.00,VWS V14.01,2013-07-30 09:15:00,
2013-07-30 05:19:00,67.5,66.0,30.20,NNE,26,0.0,0.0,95,0.00,,---,0.00,VWS V14.01,2013-07-30 09:19:00,
2013-07-30 05:24:00,67.4,65.9,30.20,NNE,26,0.0,0.0,95,0.00,,---,0.00,VWS V14.01,2013-07-30 09:24:00,
2013-07-30 05:29:00,67.2,65.7,30.21,NNE,26,0.0,0.0,95,0.00,,---,0.00,VWS V14.01,2013-07-30 09:29:00,
2013-07-30 05:30:00,67.2,65.7,30.21,SSW,202,0.0,0.0,95,0.00,,---,0.00,VWS V14.01,2013-07-30 09:30:00,
2013-07-30 05:34:00,67.1,65.6,30.20,NNE,26,0.0,0.0,95,0.00,,---,0.00,VWS V14.01,2013-07-30 09:34:00,
2013-07-30 05:40:00,67.0,65.5,30.21,NNE,26,0.0,0.0,95,0.00,,---,0.00,VWS V14.01,2013-07-30 09:40:00,
2013-07-30 05:45:00,66.9,65.4,30.21,NNE,26,0.0,0.0,95,0.00,,---,0.00,VWS V14.01,2013-07-30 09:45:00,
2013-07-30 05:50:00,66.7,65.2,30.21,NNE,26,0.0,0.0,95,0.00,,---,0.00,VWS V14.01,2013-07-30 09:50:00,
2013-07-30 05:56:00,66.6,65.1,30.21,NNE,26,0.0,1.0,95,0.00,,---,0.00,VWS V14.01,2013-07-30 09:56:00,
2013-07-30 06:00:00,66.5,65.0,30.22,NNE,22,0.0,1.0,95,0.00,,---,0.00,VWS V14.01,2013-07-30 10:00:00,
2013-07-30 06:01:00,66.5,65.0,30.22,NNE,26,0.0,0.0,95,0.00,,---,0.00,VWS V14.01,2013-07-30 10:01:00,
2013-07-30 06:06:00,66.4,64.9,30.22,NNE,26,0.0,0.0,95,0.00,,---,0.00,VWS V14.01,2013-07-30 10:06:00,
2013-07-30 06:11:00,66.3,64.8,30.22,NNE,26,0.0,0.0,95,0.00,,---,0.00,VWS V14.01,2013-07-30 10:11:00,
2013-07-30 06:15:00,66.3,64.8,30.22,NNE,22,0.0,0.0,95,0.00,,---,0.00,VWS V14.01,2013-07-30 10:15:00,
2013-07-30 06:17:00,66.2,64.7,30.22,NNE,26,0.0,0.0,95,0.00,,---,0.00,VWS V14.01,2013-07-30 10:17:00,
2013-07-30 06:23:00,66.1,64.6,30.22,NNE,26,0.0,0.0,95,0.00,,---,0.00,VWS V14.01,2013-07-30 10:23:00,
2013-07-30 06:28:00,66.1,64.6,30.22,NNE,26,0.0,0.0,95,0.00,,---,0.00,VWS V14.01,2013-07-30 10:28:00,
2013-07-30 06:30:00,66.1,64.6,30.22,NNE,22,0.0,0.0,95,0.00,,---,0.00,VWS V14.01,2013-07-30 10:30:00,
2013-07-30 06:33:00,66.1,64.6,30.22,NNE,26,0.0,0.0,95,0.00,,---,0.00,VWS V14.01,2013-07-30 10:33:00,
2013-07-30 06:38:00,66.0,64.5,30.22,NNE,26,0.0,0.0,95,0.00,,---,0.00,VWS V14.01,2013-07-30 10:38:00,
2013-07-30 06:43:00,66.0,64.5,30.23,NNE,26,0.0,0.0,95,0.00,,---,0.00,VWS V14.01,2013-07-30 10:43:00,
2013-07-30 06:45:00,66.0,64.5,30.23,NNE,22,0.0,0.0,95,0.00,,---,0.00,VWS V14.01,2013-07-30 10:45:00,
2013-07-30 06:48:00,65.9,64.4,30.23,NNE,26,0.0,0.0,95,0.00,,---,0.00,VWS V14.01,2013-07-30 10:48:00,
2013-07-30 06:53:00,65.9,64.4,30.23,NNE,26,0.0,0.0,95,0.00,,---,0.00,VWS V14.01,2013-07-30 10:53:00,
2013-07-30 06:58:00,65.9,64.4,30.23,NNE,26,0.0,0.0,95,0.00,,---,0.00,VWS V14.01,2013-07-30 10:58:00,
2013-07-30 07:00:00,65.9,64.4,30.23,NNE,22,0.0,0.0,95,0.00,,---,0.00,VWS V14.01,2013-07-30 11:00:00,
2013-07-30 07:03:00,65.9,64.4,30.24,NNE,26,0.0,0.0,95,0.00,,---,0.00,VWS V14.01,2013-07-30 11:03:00,
2013-07-30 07:09:00,66.0,64.5,30.24,NE,41,0.0,0.0,95,0.00,,---,0.00,VWS V14.01,2013-07-30 11:09:00,
2013-07-30 07:14:00,66.1,64.6,30.24,NE,41,0.0,0.0,95,0.00,,---,0.00,VWS V14.01,2013-07-30 11:14:00,
2013-07-30 07:15:00,66.2,64.7,30.24,NNE,22,0.0,1.0,95,0.00,,---,0.00,VWS V14.01,2013-07-30 11:15:00,
2013-07-30 07:19:00,66.4,65.2,30.24,NE,41,0.0,0.0,96,0.00,,---,0.00,VWS V14.01,2013-07-30 11:19:00,
2013-07-30 07:24:00,66.5,65.3,30.24,NE,41,0.0,0.0,96,0.00,,---,0.00,VWS V14.01,2013-07-30 11:24:00,
2013-07-30 07:29:00,66.7,65.5,30.24,ENE,78,0.0,1.0,96,0.00,,---,0.00,VWS V14.01,2013-07-30 11:29:00,
2013-07-30 07:30:00,66.8,65.6,30.24,NE,45,0.0,1.0,96,0.00,,---,0.00,VWS V14.01,2013-07-30 11:30:00,
2013-07-30 07:35:00,66.9,65.7,30.24,NE,48,0.0,0.0,96,0.00,,---,0.00,VWS V14.01,2013-07-30 11:35:00,
2013-07-30 07:40:00,67.1,65.9,30.24,ESE,117,0.0,0.0,96,0.00,,---,0.00,VWS V14.01,2013-07-30 11:40:00,
2013-07-30 07:45:00,67.2,66.0,30.25,ENE,59,0.0,1.0,96,0.00,,---,0.00,VWS V14.01,2013-07-30 11:45:00,
2013-07-30 07:50:00,67.3,66.1,30.24,NE,44,0.0,0.0,96,0.00,,---,0.00,VWS V14.01,2013-07-30 11:50:00,
2013-07-30 07:55:00,67.6,66.4,30.25,NE,40,0.0,0.0,96,0.00,,---,0.00,VWS V14.01,2013-07-30 11:55:00,
2013-07-30 08:00:00,68.0,66.8,30.25,ESE,112,0.0,0.0,96,0.00,,---,0.00,VWS V14.01,2013-07-30 12:00:00,
2013-07-30 08:06:00,68.2,67.0,30.25,East,101,0.0,0.0,96,0.00,,---,0.00,VWS V14.01,2013-07-30 12:06:00,
2013-07-30 08:11:00,68.4,67.2,30.25,ESE,114,0.0,0.0,96,0.00,,---,0.00,VWS V14.01,2013-07-30 12:11:00,
2013-07-30 08:15:00,69.2,68.0,30.25,ENE,68,0.0,1.0,96,0.00,,---,0.00,VWS V14.01,2013-07-30 12:15:00,
2013-07-30 08:16:00,69.3,67.8,30.25,SE,132,0.0,0.0,95,0.00,,---,0.00,VWS V14.01,2013-07-30 12:16:00,
2013-07-30 08:21:00,69.8,67.7,30.25,East,84,0.0,1.0,93,0.00,,---,0.00,VWS V14.01,2013-07-30 12:21:00,
2013-07-30 08:26:00,70.3,67.6,30.25,East,89,0.0,1.0,91,0.00,,---,0.00,VWS V14.01,2013-07-30 12:26:00,
2013-07-30 08:30:00,70.7,67.6,30.25,East,90,0.0,1.0,90,0.00,,---,0.00,VWS V14.01,2013-07-30 12:30:00,
2013-07-30 08:31:00,70.9,68.2,30.25,North,11,0.0,0.0,91,0.00,,---,0.00,VWS V14.01,2013-07-30 12:31:00,
2013-07-30 08:36:00,71.5,67.8,30.25,ENE,76,0.0,1.0,88,0.00,,---,0.00,VWS V14.01,2013-07-30 12:36:00,
2013-07-30 08:42:00,71.8,67.1,30.25,ESE,118,0.0,1.0,85,0.00,,---,0.00,VWS V14.01,2013-07-30 12:42:00,
2013-07-30 08:45:00,72.1,67.3,30.25,ESE,112,0.0,1.0,85,0.00,,---,0.00,VWS V14.01,2013-07-30 12:45:00,
2013-07-30 08:47:00,72.1,66.7,30.25,ESE,104,0.0,0.0,83,0.00,,---,0.00,VWS V14.01,2013-07-30 12:47:00,
2013-07-30 08:52:00,72.2,66.8,30.25,ESE,102,0.0,0.0,83,0.00,,---,0.00,VWS V14.01,2013-07-30 12:52:00,
2013-07-30 08:57:00,72.8,67.0,30.25,NNW,327,0.0,0.0,82,0.00,,---,0.00,VWS V14.01,2013-07-30 12:57:00,
2013-07-30 09:00:00,73.1,66.6,30.25,East,90,0.0,1.0,80,0.00,,---,0.00,VWS V14.01,2013-07-30 13:00:00,
2013-07-30 09:02:00,73.0,65.4,30.26,ESE,115,0.0,0.0,77,0.00,,---,0.00,VWS V14.01,2013-07-30 13:02:00,
2013-07-30 09:08:00,73.1,65.8,30.25,ENE,71,0.0,1.0,78,0.00,,---,0.00,VWS V14.01,2013-07-30 13:08:00,
2013-07-30 09:13:00,74.0,66.0,30.25,SE,124,0.0,1.0,76,0.00,,---,0.00,VWS V14.01,2013-07-30 13:13:00,
2013-07-30 09:15:00,73.9,65.9,30.25,NE,45,0.0,1.0,76,0.00,,---,0.00,VWS V14.01,2013-07-30 13:15:00,
2013-07-30 09:18:00,74.0,66.3,30.25,NE,38,0.0,0.0,77,0.00,,---,0.00,VWS V14.01,2013-07-30 13:18:00,
2013-07-30 09:23:00,73.9,65.9,30.26,East,86,0.0,1.0,76,0.00,,---,0.00,VWS V14.01,2013-07-30 13:23:00,
2013-07-30 09:28:00,74.1,65.7,30.26,ESE,118,0.0,1.0,75,0.00,,---,0.00,VWS V14.01,2013-07-30 13:28:00,
2013-07-30 09:30:00,74.3,65.5,30.26,ENE,68,0.0,1.0,74,0.00,,---,0.00,VWS V14.01,2013-07-30 13:30:00,
2013-07-30 09:33:00,74.3,65.9,30.25,ENE,77,0.0,0.0,75,0.00,,---,0.00,VWS V14.01,2013-07-30 13:33:00,
2013-07-30 09:38:00,74.7,65.1,30.25,ENE,67,0.0,0.0,72,0.00,,---,0.00,VWS V14.01,2013-07-30 13:38:00,
2013-07-30 09:43:00,74.9,64.5,30.25,ENE,59,0.0,0.0,70,0.00,,---,0.00,VWS V14.01,2013-07-30 13:43:00,
2013-07-30 09:45:00,74.9,64.5,30.25,ENE,68,0.0,0.0,70,0.00,,---,0.00,VWS V14.01,2013-07-30 13:45:00,
2013-07-30 09:48:00,74.7,64.7,30.25,ESE,121,0.0,0.0,71,0.00,,---,0.00,VWS V14.01,2013-07-30 13:48:00,
2013-07-30 09:54:00,75.3,66.4,30.25,ENE,67,0.0,0.0,74,0.00,,---,0.00,VWS V14.01,2013-07-30 13:54:00,
2013-07-30 09:59:00,76.4,67.5,30.25,NE,43,0.0,0.0,74,0.00,,---,0.00,VWS V14.01,2013-07-30 13:59:00,
2013-07-30 10:00:00,76.6,66.5,30.25,ENE,68,0.0,0.0,71,0.00,,---,0.00,VWS V14.01,2013-07-30 14:00:00,
2013-07-30 10:04:00,76.9,66.8,30.25,NNW,336,0.0,0.0,71,0.00,,---,0.00,VWS V14.01,2013-07-30 14:04:00,
2013-07-30 10:10:00,76.9,66.8,30.25,ENE,64,0.0,0.0,71,0.00,,---,0.00,VWS V14.01,2013-07-30 14:10:00,
2013-07-30 10:15:00,76.0,65.5,30.25,SE,126,0.0,0.0,70,0.00,,---,0.00,VWS V14.01,2013-07-30 14:15:00,
2013-07-30 10:20:00,76.4,67.1,30.25,NNE,15,0.0,0.0,73,0.00,,---,0.00,VWS V14.01,2013-07-30 14:20:00,
2013-07-30 10:25:00,77.6,66.2,30.25,NE,49,0.0,0.0,68,0.00,,---,0.00,VWS V14.01,2013-07-30 14:25:00,
2013-07-30 10:30:00,78.0,66.2,30.25,ESE,111,0.0,0.0,67,0.00,,---,0.00,VWS V14.01,2013-07-30 14:30:00,
2013-07-30 10:35:00,77.6,66.6,30.26,North,360,0.0,0.0,69,0.00,,---,0.00,VWS V14.01,2013-07-30 14:35:00,
2013-07-30 10:40:00,78.2,67.2,30.26,ESE,111,0.0,0.0,69,0.00,,---,0.00,VWS V14.01,2013-07-30 14:40:00,
2013-07-30 10:45:00,78.7,66.8,30.26,NE,42,0.0,0.0,67,0.00,,---,0.00,VWS V14.01,2013-07-30 14:45:00,
2013-07-30 11:00:00,79.3,67.8,30.26,ENE,68,0.0,1.0,68,0.00,,---,0.00,VWS V14.01,2013-07-30 15:00:00,
2013-07-30 11:15:00,78.7,66.4,30.26,ENE,68,0.0,1.0,66,0.00,,---,0.00,VWS V14.01,2013-07-30 15:15:00,
2013-07-30 11:30:00,79.0,68.4,30.25,ENE,68,0.0,0.0,70,0.00,,---,0.00,VWS V14.01,2013-07-30 15:30:00,
2013-07-30 11:45:00,80.2,66.9,30.26,ENE,68,0.0,0.0,64,0.00,,---,0.00,VWS V14.01,2013-07-30 15:45:00,
2013-07-30 12:00:00,80.6,65.9,30.25,NNE,22,0.0,1.0,61,0.00,,---,0.00,VWS V14.01,2013-07-30 16:00:00,
2013-07-30 12:15:00,81.1,66.4,30.24,NNE,22,0.0,0.0,61,0.00,,---,0.00,VWS V14.01,2013-07-30 16:15:00,
2013-07-30 12:30:00,81.2,66.0,30.24,NNE,22,0.0,0.0,60,0.00,,---,0.00,VWS V14.01,2013-07-30 16:30:00,
2013-07-30 12:45:00,81.5,68.6,30.24,NNE,22,0.0,0.0,65,0.00,,---,0.00,VWS V14.01,2013-07-30 16:45:00,
2013-07-30 13:00:00,82.7,66.4,30.23,ESE,112,0.0,7.0,58,0.00,,---,0.00,VWS V14.01,2013-07-30 17:00:00,
2013-07-30 13:15:00,82.0,66.3,30.23,SSE,158,2.0,7.0,59,0.00,,---,0.00,VWS V14.01,2013-07-30 17:15:00,
2013-07-30 13:30:00,83.0,67.7,30.23,ESE,112,2.0,7.0,60,0.00,,---,0.00,VWS V14.01,2013-07-30 17:30:00,
2013-07-30 13:45:00,83.7,68.8,30.22,SE,135,1.0,7.0,61,0.00,,---,0.00,VWS V14.01,2013-07-30 17:45:00,
2013-07-30 14:00:00,83.5,66.7,30.22,SE,135,2.0,8.0,57,0.00,,---,0.00,VWS V14.01,2013-07-30 18:00:00,
2013-07-30 14:15:00,83.5,67.7,30.21,SSE,158,2.0,6.0,59,0.00,,---,0.00,VWS V14.01,2013-07-30 18:15:00,
2013-07-30 14:30:00,83.5,67.7,30.21,SE,135,1.0,5.0,59,0.00,,---,0.00,VWS V14.01,2013-07-30 18:30:00,
2013-07-30 14:45:00,84.5,70.1,30.20,ESE,112,2.0,6.0,62,0.00,,---,0.00,VWS V14.01,2013-07-30 18:45:00,
2013-07-30 15:00:00,84.6,70.6,30.20,SE,135,2.0,6.0,63,0.00,,---,0.00,VWS V14.01,2013-07-30 19:00:00,
2013-07-30 15:15:00,83.7,66.9,30.20,SSE,158,1.0,5.0,57,0.00,,---,0.00,VWS V14.01,2013-07-30 19:15:00,
2013-07-30 15:30:00,83.6,67.8,30.19,SSE,158,1.0,4.0,59,0.00,,---,0.00,VWS V14.01,2013-07-30 19:30:00,
2013-07-30 15:45:00,84.9,70.0,30.19,ENE,68,1.0,3.0,61,0.00,,---,0.00,VWS V14.01,2013-07-30 19:45:00,
2013-07-30 16:00:00,83.6,67.3,30.19,ESE,112,1.0,5.0,58,0.00,,---,0.00,VWS V14.01,2013-07-30 20:00:00,
2013-07-30 16:15:00,84.0,68.6,30.19,SE,135,1.0,5.0,60,0.00,,---,0.00,VWS V14.01,2013-07-30 20:15:00,
2013-07-30 16:30:00,83.2,67.4,30.19,ENE,68,0.0,2.0,59,0.00,,---,0.00,VWS V14.01,2013-07-30 20:30:00,
2013-07-30 16:45:00,82.5,66.7,30.19,ESE,112,1.0,3.0,59,0.00,,---,0.00,VWS V14.01,2013-07-30 20:45:00,
2013-07-30 17:00:00,83.0,68.2,30.19,ESE,112,1.0,3.0,61,0.00,,---,0.00,VWS V14.01,2013-07-30 21:00:00,
2013-07-30 17:15:00,83.4,68.1,30.19,SE,135,1.0,4.0,60,0.00,,---,0.00,VWS V14.01,2013-07-30 21:15:00,
2013-07-30 17:30:00,82.2,68.4,30.18,SSE,158,2.0,5.0,63,0.00,,---,0.00,VWS V14.01,2013-07-30 21:30:00,
2013-07-30 17:45:00,82.5,70.0,30.18,ESE,112,0.0,2.0,66,0.00,,---,0.00,VWS V14.01,2013-07-30 21:45:00,
2013-07-30 18:00:00,82.5,69.1,30.18,ESE,112,1.0,3.0,64,0.00,,---,0.00,VWS V14.01,2013-07-30 22:00:00,
2013-07-30 18:15:00,82.3,69.8,30.18,ESE,112,0.0,2.0,66,0.00,,---,0.00,VWS V14.01,2013-07-30 22:15:00,
2013-07-30 18:30:00,82.1,69.6,30.18,ESE,112,1.0,3.0,66,0.00,,---,0.00,VWS V14.01,2013-07-30 22:30:00,
2013-07-30 18:45:00,81.7,69.7,30.18,ESE,112,1.0,3.0,67,0.00,,---,0.00,VWS V14.01,2013-07-30 22:45:00,
2013-07-30 19:00:00,81.0,69.4,30.17,ESE,112,1.0,4.0,68,0.00,,---,0.00,VWS V14.01,2013-07-30 23:00:00,
2013-07-30 19:15:00,80.0,70.2,30.17,East,90,0.0,1.0,72,0.00,,---,0.00,VWS V14.01,2013-07-30 23:15:00,
2013-07-30 19:30:00,79.4,69.6,30.17,East,90,0.0,1.0,72,0.00,,---,0.00,VWS V14.01,2013-07-30 23:30:00,
2013-07-30 19:45:00,78.7,70.1,30.17,East,90,0.0,0.0,75,0.00,,---,0.00,VWS V14.01,2013-07-30 23:45:00,
2013-07-30 20:00:00,77.9,70.1,30.17,East,90,0.0,0.0,77,0.00,,---,0.00,VWS V14.01,2013-07-31 00:00:00,
2013-07-30 20:15:00,76.7,69.7,30.17,East,90,0.0,0.0,79,0.00,,---,0.00,VWS V14.01,2013-07-31 00:15:00,
2013-07-30 20:30:00,75.9,69.7,30.17,East,90,0.0,0.0,81,0.00,,---,0.00,VWS V14.01,2013-07-31 00:30:00,
2013-07-30 20:45:00,74.8,68.9,30.18,East,90,0.0,0.0,82,0.00,,---,0.00,VWS V14.01,2013-07-31 00:45:00,
2013-07-30 21:00:00,74.3,69.2,30.18,East,90,0.0,0.0,84,0.00,,---,0.00,VWS V14.01,2013-07-31 01:00:00,
2013-07-30 21:15:00,73.8,69.0,30.18,East,90,0.0,0.0,85,0.00,,---,0.00,VWS V14.01,2013-07-31 01:15:00,
2013-07-30 21:30:00,73.5,69.1,30.18,East,90,0.0,0.0,86,0.00,,---,0.00,VWS V14.01,2013-07-31 01:30:00,
2013-07-30 21:45:00,73.7,69.3,30.18,East,90,0.0,0.0,86,0.00,,---,0.00,VWS V14.01,2013-07-31 01:45:00,
2013-07-30 22:00:00,73.7,69.6,30.19,East,90,0.0,1.0,87,0.00,,---,0.00,VWS V14.01,2013-07-31 02:00:00,
2013-07-30 22:15:00,73.4,69.6,30.20,East,90,0.0,0.0,88,0.00,,---,0.00,VWS V14.01,2013-07-31 02:15:00,
2013-07-30 22:30:00,73.2,69.4,30.20,East,90,0.0,0.0,88,0.00,,---,0.00,VWS V14.01,2013-07-31 02:30:00,
2013-07-30 22:45:00,72.9,69.5,30.20,East,90,0.0,0.0,89,0.00,,---,0.00,VWS V14.01,2013-07-31 02:45:00,
2013-07-30 23:00:00,72.8,69.7,30.19,East,90,0.0,0.0,90,0.00,,---,0.00,VWS V14.01,2013-07-31 03:00:00,
2013-07-30 23:15:00,72.8,69.7,30.19,East,90,0.0,0.0,90,0.00,,---,0.00,VWS V14.01,2013-07-31 03:15:00,
2013-07-30 23:30:00,72.6,69.2,30.19,East,90,0.0,0.0,89,0.00,,---,0.00,VWS V14.01,2013-07-31 03:30:00,
2013-07-30 23:45:00,71.9,69.1,30.19,East,90,0.0,0.0,91,0.00,,---,0.00,VWS V14.01,2013-07-31 03:45:00,